Tracking 35048 objects as of 19-Aug-2026
HD Live streaming from Space Station
objects crossing your sky now

MARAFON-D-GVM

Track MARAFON-D-GVM now!
10-day predictions
MARAFON-D-GVM is classified as:


NORAD ID: 59072
Int'l Code: 2024-039V
Launch date: February 29, 2024
Source: (TBD)
Launch site: VOSTOCHNY COSMODROME (VOSTO)

Uplink (MHz):
Downlink (MHz):
Beacon (MHz):
Mode:
Call sign:
Status: Unknown

Your satellite tracking list
Your tracking list is empty




NASA's NSSDC Master Catalog

Two Line Element Set (TLE):
1 59072U 24039V   26230.92754235  .00000172  00000-0  43718-4 0  9998
2 59072  88.9788 276.2938 0018737 120.0252 240.2815 14.46033125130250
Source of the keplerian elements: AFSPC